Vorticity
26 25 2 2 -2 -6 -1 -3 5 26 13 17 15 15 4 11 9 11 22 14 -5 -19 10 16 16 11 15 13 9 8 9 10 12 11 15 16 21 22 8 30 33 36 40 27
19 -8 5 15 7 2 -6 20 15 15 -2 28 11 4 1 1 -1 2 -6 -4 -1 28 14 12 11 13 14 12 13 10 15 12 9 10 21 12 7 13 12 3 23 28 6 13
13 5 12 21 27 30 18 9 19 12 13 8 12 5 -0 12 15 15 16 14 15 19 18 16 12 10 9 15 17 20 11 13 19 22 4 2 5 6 -1 6 14 32 21 21
14 7 1 13 15 17 5 6 14 -6 -10 -1 12 14 16 21 14 10 11 15 15 14 13 12 15 16 21 4 6 11 13 17 14 10 3 8 8 -2 3 1 2 4 11 22
-4 -7 -2 14 11 14 7 1 -6 -2 5 5 15 26 8 14 14 13 13 10 12 11 11 16 3 2 1 8 11 10 14 21 7 9 5 2 -6 13 7 11 -1 -1 9 29
1 8 15 16 -23 17 12 1 11 10 12 17 5 2 12 12 17 21 21 16 15 12 10 10 11 17 18 5 22 20 12 6 6 2 8 6 5 -1 3 1 9 -2 8 25
17 10 7 13 8 -3 -0 12 16 13 9 8 12 10 7 2 3 14 9 10 10 11 12 16 24 14 26 27 28 25 1 5 5 2 3 3 9 9 6 6 6 3 4 2
9 10 -8 16 9 3 14 5 4 4 8 6 7 9 -2 -6 19 18 12 15 10 12 19 16 17 32 -6 -6 10 17 16 7 6 6 7 6 9 9 7 10 9 3 1 -3
-1 -2 3 4 6 8 9 13 14 11 12 11 7 1 -0 -6 14 16 12 10 8 14 9 -0 12 4 11 21 12 14 18 9 7 3 9 10 9 17 20 21 9 -3 -4 0
7 13 20 17 11 15 14 14 12 8 -1 2 4 -1 3 35 25 16 10 10 7 4 10 30 8 1 11 23 20 12 7 5 4 10 7 15 5 23 41 35 18 29 27 34
6 6 9 -2 9 7 8 4 4 7 4 3 20 35 28 18 23 10 8 9 12 6 10 4 -16 8 15 12 10 4 7 9 6 13 13 21 26 15 40 28 14 16 16 35
23 24 13 12 15 18 19 20 18 19 19 15 15 16 17 20 15 14 14 13 11 11 13 15 26 18 22 8 5 9 3 12 7 20 19 20 5 21 46 18 24 19 12 14
12 12 12 17 16 16 16 17 14 11 11 11 12 11 15 16 14 13 12 16 23 25 17 17 23 9 13 14 12 5 15 8 19 6 21 18 23 26 -5 30 19 24 34 17
16 18 14 13 16 18 15 16 15 14 13 12 11 14 16 22 14 5 12 18 14 13 -19 15 17 16 9 7 10 10 13 12 15 12 13 5 11 3 28 12 26 17 10 11
15 14 15 14 30 20 12 18 29 38 39 24 22 32 22 11 13 13 15 23 11 33 10 8 9 4 5 8 5 12 16 14 18 26 21 21 9 26 11 9 6 6 11 11
24 24 24 23 17 24 29 26 28 50 55 44 50 10 12 17 23 15 9 13 11 4 11 15 4 3 11 7 16 18 25 31 20 20 16 0 6 2 1 2 4 10 9 2
33 38 33 22 23 24 25 19 23 23 19 16 17 22 25 17 11 3 20 -4 -15 11 12 8 9 10 9 16 8 14 15 26 16 12 12 12 14 13 12 13 11 11 9 13
22 -4 21 10 9 14 15 9 12 10 25 14 28 35 34 28 20 9 14 16 20 10 5 2 9 13 12 10 14 13 17 7 14 19 20 20 20 19 18 16 16 17 17 18
-4 -12 -4 11 18 10 19 10 14 -9 -10 7 8 9 6 6 5 8 12 8 4 2 6 6 11 12 12 10 12 13 13 8 5 5 5 5 5 7 8 9 9 9 9 10
28 10 7 7 7 4 5 5 3 4 14 14 -2 6 8 12 21 30 26 12 15 10 17 15 11 13 9 10 13 12 12 12 9 7 5 7 9 10 10 12 13 14 16 17
14 9 17 10 10 9 11 11 12 14 4 3 11 11 6 7 15 14 11 27 25 16 13 11 12 8 8 15 16 12 12 12 10 6 8 10 11 13 13 13 15 19 20 20
3 3 3 5 8 7 6 10 8 8 4 4 7 3 6 11 14 16 16 16 17 14 15 11 8 7 15 17 12 10 14 8 6 9 11 11 12 11 13 16 17 19 17 19
-3 5 7 10 12 13 11 10 9 8 9 10 6 5 2 10 15 19 18 10 8 10 9 6 6 13 20 10 9 14 7 5 8 11 10 10 9 11 11 13 18 19 19 22
9 10 13 16 17 15 16 20 20 15 20 18 13 6 4 9 15 12 10 6 6 12 11 7 11 20 10 9 14 9 5 6 11 10 10 9 8 7 8 11 14 17 18 20
6 7 11 9 8 8 9 10 6 6 5 9 9 7 8 11 13 9 7 11 14 12 9 10 17 13 9 12 12 7 5 7 9 9 9 8 9 7 7 6 11 17 17 15
9 11 13 12 11 10 10 12 12 14 14 10 7 9 13 15 12 10 8 10 13 12 10 15 16 9 10 12 10 7 7 6 7 9 9 9 8 8 8 6 7 16 20 17
23 21 17 16 18 18 13 11 12 11 11 11 15 13 13 17 13 10 7 12 11 9 15 18 11 9 7 6 6 7 7 7 6 6 7 7 9 8 9 9 6 12 17 18
Height
5652 5657 5659 5659 5660 5659 5657 5657 5659 5662 5666 5667 5656 5653 5652 5653 5651 5652 5653 5650 5647 5647 5649 5647 5643 5640 5636 5633 5631 5627 5623 5621 5617 5615 5612 5608 5605 5601 5597 5592 5586 5580 5575 5572
5639 5642 5645 5647 5646 5643 5643 5644 5647 5647 5650 5653 5648 5644 5645 5644 5642 5641 5640 5637 5636 5636 5634 5632 5629 5626 5623 5621 5618 5615 5611 5607 5604 5602 5599 5596 5593 5589 5585 5580 5574 5567 5562 5557
5623 5626 5629 5631 5635 5632 5631 5631 5632 5631 5638 5637 5640 5633 5632 5630 5628 5625 5625 5626 5624 5621 5619 5616 5614 5612 5609 5607 5604 5601 5598 5594 5591 5590 5588 5584 5581 5577 5573 5569 5562 5556 5548 5542
5609 5611 5610 5622 5622 5620 5618 5618 5618 5619 5621 5622 5624 5622 5619 5615 5613 5612 5610 5609 5606 5604 5602 5600 5599 5597 5595 5592 5590 5588 5585 5583 5582 5579 5577 5574 5571 5567 5564 5558 5552 5545 5536 5530
5595 5598 5601 5607 5609 5610 5609 5608 5607 5607 5606 5605 5606 5605 5604 5601 5600 5598 5596 5594 5591 5588 5587 5587 5585 5583 5581 5579 5578 5576 5574 5572 5571 5568 5566 5563 5560 5556 5552 5547 5540 5533 5525 5518
5584 5584 5588 5602 5599 5598 5593 5595 5601 5595 5593 5591 5591 5592 5592 5590 5587 5584 5583 5581 5577 5575 5574 5572 5571 5571 5568 5566 5565 5564 5563 5562 5560 5558 5555 5552 5548 5544 5540 5535 5529 5523 5517 5508
5572 5571 5580 5593 5586 5578 5581 5588 5584 5582 5580 5578 5577 5578 5578 5575 5572 5571 5570 5569 5565 5563 5562 5561 5560 5560 5557 5555 5553 5552 5552 5551 5550 5548 5544 5541 5536 5531 5526 5523 5518 5512 5507 5500
5556 5557 5568 5579 5566 5562 5565 5561 5563 5566 5565 5564 5564 5563 5563 5563 5561 5558 5557 5556 5553 5551 5550 5549 5549 5548 5548 5546 5544 5543 5541 5540 5539 5537 5533 5529 5525 5519 5514 5510 5507 5502 5497 5491
5544 5548 5554 5555 5551 5545 5543 5542 5545 5548 5548 5549 5548 5548 5548 5549 5547 5544 5542 5542 5542 5541 5540 5539 5539 5539 5538 5536 5534 5532 5531 5530 5527 5524 5521 5517 5511 5505 5500 5496 5493 5491 5487 5483
5528 5533 5532 5533 5533 5530 5529 5529 5528 5530 5531 5533 5534 5534 5534 5534 5532 5531 5530 5530 5529 5530 5529 5529 5529 5529 5529 5527 5525 5523 5521 5519 5516 5513 5509 5503 5498 5492 5485 5480 5479 5479 5478 5475
5511 5515 5515 5520 5518 5515 5512 5512 5511 5512 5515 5516 5518 5518 5519 5520 5519 5519 5518 5519 5519 5518 5518 5519 5518 5519 5518 5517 5515 5513 5511 5508 5505 5502 5497 5492 5486 5478 5471 5468 5469 5471 5471 5470
5496 5498 5497 5503 5498 5495 5492 5492 5494 5495 5497 5499 5501 5503 5504 5507 5507 5506 5507 5506 5506 5507 5507 5506 5507 5508 5507 5507 5506 5504 5501 5498 5495 5491 5486 5483 5477 5468 5463 5462 5462 5464 5466 5466
5482 5480 5482 5488 5484 5482 5481 5482 5480 5478 5480 5482 5485 5487 5491 5494 5495 5494 5494 5495 5496 5497 5497 5497 5497 5498 5498 5498 5497 5495 5491 5488 5484 5482 5478 5474 5469 5465 5461 5460 5459 5460 5461 5461
5470 5470 5476 5474 5473 5468 5465 5465 5462 5461 5461 5463 5468 5472 5477 5481 5482 5482 5484 5485 5487 5489 5489 5489 5489 5489 5490 5490 5488 5485 5481 5478 5475 5473 5471 5468 5465 5462 5459 5458 5458 5459 5460 5460
5461 5460 5460 5457 5455 5454 5451 5449 5446 5443 5441 5442 5450 5459 5465 5468 5470 5473 5475 5477 5480 5481 5482 5483 5483 5484 5483 5481 5479 5475 5471 5468 5466 5464 5463 5462 5460 5459 5459 5458 5458 5458 5457 5457
5447 5448 5448 5448 5447 5444 5442 5440 5435 5427 5424 5429 5438 5445 5452 5457 5460 5464 5467 5470 5473 5475 5476 5476 5477 5477 5475 5474 5471 5467 5463 5459 5458 5457 5457 5456 5456 5456 5455 5455 5455 5455 5454 5453
5439 5440 5441 5441 5440 5439 5437 5436 5433 5429 5428 5431 5436 5440 5445 5449 5454 5458 5462 5464 5466 5468 5469 5469 5470 5469 5468 5466 5464 5461 5458 5454 5453 5453 5452 5451 5451 5451 5450 5449 5449 5448 5447 5446
5438 5439 5440 5440 5439 5438 5436 5435 5434 5432 5433 5433 5435 5438 5442 5446 5450 5453 5456 5458 5460 5462 5463 5464 5464 5463 5462 5460 5458 5456 5454 5452 5451 5449 5448 5447 5447 5446 5445 5444 5442 5441 5439 5437
5439 5439 5440 5439 5438 5437 5437 5436 5436 5436 5437 5438 5439 5440 5442 5445 5447 5449 5451 5453 5454 5455 5456 5457 5457 5456 5456 5455 5453 5452 5451 5449 5448 5447 5446 5445 5444 5442 5440 5438 5436 5434 5431 5428
5438 5439 5439 5439 5438 5438 5437 5437 5437 5438 5438 5438 5440 5440 5441 5442 5443 5444 5444 5445 5446 5447 5449 5450 5451 5451 5451 5450 5448 5447 5446 5446 5445 5444 5443 5441 5439 5437 5434 5431 5428 5424 5421 5417
5437 5438 5437 5437 5437 5437 5436 5436 5436 5436 5437 5438 5439 5439 5440 5440 5439 5439 5439 5438 5439 5441 5442 5444 5445 5446 5446 5444 5443 5443 5442 5442 5441 5440 5438 5436 5434 5431 5427 5423 5419 5415 5411 5407
5434 5434 5434 5434 5434 5434 5434 5434 5434 5434 5434 5435 5436 5436 5436 5435 5434 5434 5434 5435 5436 5438 5439 5440 5441 5441 5440 5439 5439 5439 5439 5438 5438 5436 5434 5432 5429 5425 5421 5417 5412 5408 5404 5400
5431 5431 5431 5431 5431 5431 5431 5431 5430 5430 5430 5431 5432 5432 5432 5432 5431 5431 5431 5433 5434 5435 5435 5436 5436 5435 5435 5435 5436 5435 5435 5435 5434 5432 5430 5427 5424 5420 5416 5412 5407 5402 5398 5394
5427 5427 5427 5426 5426 5425 5425 5426 5426 5426 5426 5427 5428 5429 5429 5429 5428 5428 5429 5430 5431 5431 5432 5432 5431 5431 5431 5432 5432 5432 5432 5431 5430 5428 5425 5423 5420 5416 5412 5407 5403 5398 5395 5391
5422 5422 5422 5422 5422 5422 5422 5422 5422 5422 5422 5422 5423 5424 5424 5425 5425 5425 5426 5427 5427 5427 5427 5427 5427 5427 5428 5428 5428 5428 5428 5427 5425 5423 5421 5418 5415 5412 5408 5404 5399 5395 5391 5387
5417 5417 5417 5417 5417 5417 5417 5417 5417 5417 5417 5418 5418 5419 5419 5419 5420 5421 5422 5422 5422 5422 5422 5423 5423 5424 5424 5424 5424 5425 5424 5423 5421 5419 5416 5414 5411 5407 5404 5400 5396 5391 5386 5383
5412 5412 5411 5411 5411 5411 5411 5411 5412 5412 5412 5412 5412 5413 5413 5414 5415 5416 5417 5418 5418 5418 5418 5419 5419 5420 5421 5421 5421 5420 5419 5418 5416 5414 5412 5409 5406 5403 5399 5396 5391 5387 5382 5378